EDW1C EDJA-LOWI

Flight info

Callsign EDW1C
Flight time N/A
Altitude 14000
Route MOMUK/N0292F130 DCT BEMKI DCT XEBIX XEBIX1B
Aircraft B350/L-SBGRW/S

Departure

Time 2026-04-28 17:48
Airport Memmingen Allgau Airport (EDJA)

Arrival

Time N/A
Airport Innsbruck Airport (LOWI)
Time Latitude Longitude Altitude Speed Heading
2026-04-28 17:32 47.98892 10.23333 2076 ft 0 kts 49°
2026-04-28 17:46 47.98894 10.23371 2076 ft 13 kts 118°
2026-04-28 17:46 47.98868 10.23382 2077 ft 7 kts 194°
2026-04-28 17:46 47.98830 10.23288 2077 ft 20 kts 251°
2026-04-28 17:46 47.98783 10.23088 2076 ft 8 kts 251°
2026-04-28 17:47 47.98746 10.22944 2074 ft 9 kts 231°
2026-04-28 17:47 47.98713 10.22969 2075 ft 0 kts 107°
2026-04-28 17:47 47.98685 10.22997 2076 ft 13 kts 148°
2026-04-28 17:47 47.98620 10.23061 2075 ft 21 kts 140°
2026-04-28 17:48 47.98635 10.23329 2076 ft 58 kts 58°
2026-04-28 17:48 47.98981 10.24197 2084 ft 131 kts 60°
2026-04-28 17:48 47.99475 10.25514 2522 ft 153 kts 66°
2026-04-28 17:48 47.99395 10.27052 3181 ft 167 kts 127°
2026-04-28 17:49 47.98332 10.28080 3413 ft 194 kts 147°
2026-04-28 17:49 47.97100 10.29120 3626 ft 211 kts 148°
2026-04-28 17:49 47.95755 10.30147 3854 ft 223 kts 150°
2026-04-28 17:49 47.94280 10.31156 3782 ft 241 kts 153°
2026-04-28 17:50 47.92791 10.32334 3740 ft 243 kts 137°
2026-04-28 17:50 47.91753 10.34247 3751 ft 242 kts 120°
2026-04-28 17:50 47.90794 10.36339 3766 ft 246 kts 126°
2026-04-28 17:50 47.89663 10.38177 3759 ft 230 kts 132°
2026-04-28 17:51 47.88574 10.39809 3758 ft 216 kts 131°
2026-04-28 17:51 47.87540 10.41394 3763 ft 211 kts 131°
2026-04-28 17:51 47.86528 10.42952 3791 ft 208 kts 130°
2026-04-28 17:51 47.85529 10.44496 3810 ft 207 kts 131°
2026-04-28 17:52 47.84528 10.46035 3834 ft 207 kts 131°
2026-04-28 17:52 47.83521 10.47571 3883 ft 207 kts 129°
2026-04-28 17:52 47.81537 10.50606 4193 ft 200 kts 131°
2026-04-28 17:53 47.80590 10.52062 4377 ft 197 kts 131°
2026-04-28 17:53 47.79645 10.53521 4580 ft 195 kts 131°
2026-04-28 17:53 47.78695 10.54974 4779 ft 195 kts 130°
2026-04-28 17:53 47.77541 10.56044 5009 ft 203 kts 164°
2026-04-28 17:54 47.76110 10.56006 5267 ft 207 kts 184°
2026-04-28 17:54 47.74699 10.55723 5564 ft 205 kts 184°
2026-04-28 17:54 47.73288 10.55437 5860 ft 204 kts 185°
2026-04-28 17:54 47.71860 10.55154 6160 ft 204 kts 184°
2026-04-28 17:55 47.70459 10.54859 6467 ft 204 kts 186°
2026-04-28 17:55 47.69071 10.54564 6748 ft 205 kts 186°
2026-04-28 17:55 47.67658 10.54320 7035 ft 204 kts 185°
2026-04-28 17:55 47.66239 10.54107 7324 ft 205 kts 186°
2026-04-28 17:56 47.64815 10.53934 7622 ft 210 kts 185°
2026-04-28 17:56 47.63307 10.53783 7924 ft 223 kts 185°
2026-04-28 17:56 47.61725 10.53632 8228 ft 232 kts 185°
2026-04-28 17:56 47.60092 10.53496 8538 ft 238 kts 185°
2026-04-28 17:57 47.58416 10.53363 8849 ft 243 kts 185°
2026-04-28 17:57 47.56715 10.53237 9164 ft 246 kts 186°
2026-04-28 17:57 47.54995 10.53157 9485 ft 249 kts 186°
2026-04-28 17:57 47.53258 10.53076 9801 ft 251 kts 185°
2026-04-28 17:58 47.51502 10.52993 10103 ft 253 kts 184°
2026-04-28 17:58 47.49761 10.52854 10391 ft 255 kts 185°
2026-04-28 17:58 47.47988 10.52698 10686 ft 256 kts 185°
2026-04-28 17:58 47.46196 10.52555 10979 ft 258 kts 185°
2026-04-28 17:59 47.44394 10.52536 11264 ft 259 kts 178°
2026-04-28 17:59 47.42590 10.52761 11559 ft 260 kts 176°
2026-04-28 17:59 47.40787 10.53026 11858 ft 260 kts 175°
2026-04-28 17:59 47.38980 10.53312 12167 ft 261 kts 176°
2026-04-28 18:00 47.37158 10.53595 12468 ft 262 kts 176°
2026-04-28 18:00 47.35350 10.53883 12526 ft 264 kts 176°
2026-04-28 18:00 47.33537 10.54170 12524 ft 259 kts 176°
2026-04-28 18:00 47.31780 10.54743 12501 ft 258 kts 163°
2026-04-28 18:01 47.30059 10.55098 12534 ft 252 kts 191°
2026-04-28 18:01 47.28445 10.54213 12565 ft 247 kts 204°
2026-04-28 18:01 47.26735 10.53901 12530 ft 253 kts 173°
2026-04-28 18:01 47.25111 10.54876 12500 ft 256 kts 144°
2026-04-28 18:02 47.23975 10.56887 12467 ft 258 kts 116°
2026-04-28 18:02 47.23517 10.59436 12443 ft 258 kts 98°
2026-04-28 18:02 47.23463 10.62065 12423 ft 256 kts 86°
2026-04-28 18:02 47.23705 10.64601 12392 ft 244 kts 79°
2026-04-28 18:03 47.24035 10.67059 12050 ft 248 kts 78°
2026-04-28 18:03 47.24383 10.69551 11669 ft 249 kts 78°
2026-04-28 18:03 47.24967 10.71946 11274 ft 248 kts 63°
2026-04-28 18:03 47.25760 10.74192 10902 ft 247 kts 61°
2026-04-28 18:04 47.26551 10.76369 10387 ft 225 kts 62°
2026-04-28 18:04 47.27260 10.78267 9762 ft 199 kts 61°
2026-04-28 18:04 47.27909 10.79968 9028 ft 189 kts 58°
2026-04-28 18:04 47.28640 10.81557 8244 ft 185 kts 54°
2026-04-28 18:05 47.29389 10.83078 7423 ft 183 kts 54°
2026-04-28 18:05 47.29888 10.84085 6850 ft 185 kts 55°
2026-04-28 18:05 47.30635 10.86337 5675 ft 183 kts 73°
2026-04-28 18:05 47.30943 10.88132 4830 ft 178 kts 77°
2026-04-28 18:06 47.30945 10.89875 4304 ft 165 kts 107°
2026-04-28 18:06 47.30502 10.91401 3895 ft 158 kts 112°
2026-04-28 18:06 47.30399 10.92932 3766 ft 146 kts 84°
2026-04-28 18:06 47.30491 10.94423 3705 ft 148 kts 84°
2026-04-28 18:07 47.30626 10.95906 3769 ft 147 kts 82°
2026-04-28 18:07 47.30734 10.97406 3804 ft 147 kts 81°
2026-04-28 18:07 47.30938 10.98901 3823 ft 147 kts 78°
2026-04-28 18:07 47.31141 11.00394 3824 ft 149 kts 79°
2026-04-28 18:08 47.31315 11.01914 3813 ft 151 kts 81°
2026-04-28 18:08 47.31415 11.03443 3838 ft 149 kts 91°
2026-04-28 18:08 47.31184 11.04962 3693 ft 158 kts 111°
2026-04-28 18:08 47.30706 11.06444 3574 ft 159 kts 118°
2026-04-28 18:09 47.30191 11.07864 3606 ft 153 kts 112°
2026-04-28 18:09 47.29808 11.09295 3716 ft 148 kts 111°
2026-04-28 18:09 47.29404 11.10670 3780 ft 149 kts 113°
2026-04-28 18:09 47.28991 11.12051 3919 ft 145 kts 112°
2026-04-28 18:10 47.28528 11.13419 3882 ft 153 kts 116°